Location: Newark
(43.4545°N, 5.8521°W)
Time: 03:41:32
(UTC+00:00)

ISS - Visible Passes

Search period start: 20 November 2019 00:00
Search period end: 30 November 2019 00:00
Orbit: 412 x 421 km, 51.6° (Epoch: 20 November)

Date Brightness Start Highest point End Pass type
(mag) Time Alt. Az. Time Alt. Az. Time Alt. Az.
20 Nov -1.4 19:01:06 10° SSW 19:02:08 17° S 19:02:08 17° S visible
21 Nov -2.0 18:13:29 10° S 18:15:51 18° SE 18:16:05 18° SE visible
21 Nov -0.3 19:48:58 10° WSW 19:49:00 10° WSW 19:49:00 10° WSW visible
22 Nov -1.4 17:26:51 10° SE 17:27:40 11° SE 17:28:29 10° ESE visible
22 Nov -2.6 19:00:32 10° SW 19:02:51 41° SW 19:02:51 41° SW visible
23 Nov -3.3 18:12:18 10° SW 18:15:32 47° SE 18:16:37 33° E visible
23 Nov -0.3 19:49:17 10° W 19:49:32 11° W 19:49:32 11° W visible
24 Nov -2.5 17:24:18 10° SSW 17:27:12 28° SE 17:30:08 10° ENE visible
24 Nov -2.5 19:00:36 10° W 19:03:12 39° WNW 19:03:12 39° WNW visible
25 Nov -3.6 18:12:01 10° WSW 18:15:21 68° NNW 18:16:48 30° NE visible
26 Nov -3.7 17:23:34 10° SW 17:26:55 75° SE 17:30:16 10° ENE visible
26 Nov -1.9 19:01:01 10° WNW 19:03:15 25° NW 19:03:15 25° NW visible
27 Nov -2.6 18:12:13 10° W 18:15:19 34° NNW 18:16:45 23° NNE visible
28 Nov -3.1 17:23:30 10° WSW 17:26:45 47° NNW 17:30:01 10° NE visible
28 Nov -1.4 19:01:27 10° WNW 19:03:06 18° NNW 19:03:06 18° NNW visible
29 Nov -2.0 18:12:38 10° WNW 18:15:23 23° NNW 18:16:32 19° NNE visible
